Regional Weather Roundup
Issued by NWS

Home | Current Version | Previous Version | Text Only | Print | Product List | Glossary On
Versions: 1 2 3 4 5 6 7 8 9 10 11 12 13 14 15 16 17 18 19 20 21 22 23 24 25 26 27 28 29 30 31 32 33 34 35 36 37 38 39 40 41 42 43 44 45 46 47 48 49 50
000
ASUS46 KPQR 071810
RWROR

OREGON REGIONAL WEATHER ROUNDUP
NATIONAL WEATHER SERVICE PORTLAND OR
1100 AM PDT TUE JUL 07 2015

NOTE: "FAIR" INDICATES FEW OR NO CLOUDS BELOW 12,000 FEET WITH
NO SIGNIFICANT WEATHER AND/OR OBSTRUCTIONS TO VISIBILITY.

ORZ001>013-071900-
NORTHWEST OREGON


CITY           SKY/WX    TMP DP  RH WIND       PRES   REMARKS
ASTORIA        CLOUDY    63  56  78 NW7       30.03F
6HR MIN TEMP:  57; 6HR MAX TEMP:  63;

NEWPORT        MOSUNNY   61  52  72 W8        30.07S
PORTLAND       PTSUNNY   68  57  68 NW9       30.02F
6HR MIN TEMP:  59; 6HR MAX TEMP:  68;

VANCOUVER WA   MOSUNNY   68  55  63 W10       30.01F
6HR MIN TEMP:  59; 6HR MAX TEMP:  68;

SCAPPOOSE      MOSUNNY   70  55  59 VRB3      30.01F
6HR MIN TEMP:  58; 6HR MAX TEMP:  70;

HILLSBORO      MOSUNNY   68  55  63 CALM      30.02F
6HR MIN TEMP:  57; 6HR MAX TEMP:  68;

AURORA         MOSUNNY   69  55  60 CALM      30.02F
6HR MIN TEMP:  54; 6HR MAX TEMP:  70;

MCMINNVILLE    MOSUNNY   69  55  60 NE5       30.02F
6HR MIN TEMP:  53; 6HR MAX TEMP:  70;

SALEM          MOSUNNY   70  53  54 VRB5      30.00F
6HR MIN TEMP:  56; 6HR MAX TEMP:  71;

CORVALLIS      MOSUNNY   70  52  52 N5        30.03F
EUGENE         MOSUNNY   73  53  49 N7        30.01F
6HR MIN TEMP:  53; 6HR MAX TEMP:  73;

$$

ORZ021-028-071900-
SOUTHWEST OREGON


CITY           SKY/WX    TMP DP  RH WIND       PRES   REMARKS
NORTH BEND     CLOUDY    64  55  72 N10       30.04S
6HR MIN TEMP:  57; 6HR MAX TEMP:  64;

BROOKINGS      CLOUDY    62  60  93 CALM      30.04F
ROSEBURG       SUNNY     75  55  49 CALM      29.98F
6HR MIN TEMP:  59; 6HR MAX TEMP:  76;

SEXTON SUMMIT  SUNNY     70  56  61 CALM      30.08F
6HR MIN TEMP:  58; 6HR MAX TEMP:  73;

MEDFORD          N/A    N/A N/A N/A MISG      29.95F
$$

ORZ014>016-041-071900-
COLUMBIA GORGE


CITY           SKY/WX    TMP DP  RH WIND       PRES   REMARKS
TROUTDALE      MOSUNNY   70  56  61 VRB5      30.00F
6HR MIN TEMP:  59; 6HR MAX TEMP:  70;

THE DALLES     MOSUNNY   85  54  34 NW18      29.89F
6HR MIN TEMP:  71; 6HR MAX TEMP:  85;

$$

ORZ029>031-041-044-049-050-061>064-502-503-505>511-071900-
EASTERN OREGON


CITY           SKY/WX    TMP DP  RH WIND       PRES   REMARKS
REDMOND        SUNNY     82  50  32 CALM      30.02F
6HR MIN TEMP:  55; 6HR MAX TEMP:  82;

BEND             N/A    N/A N/A N/A MISG        N/A
PRINEVILLE     MOSUNNY   84  48  28 N9        30.02F
KLAMATH FALLS  SUNNY     80  52  37 VRB3      30.07F
6HR MIN TEMP:  55; 6HR MAX TEMP:  80;

LAKEVIEW       MOSUNNY   79  48  34 CALM      30.11F
HERMISTON      SUNNY     88  54  31 W12       29.88F
6HR MIN TEMP:  74; 6HR MAX TEMP:  88;

PENDLETON      SUNNY     88  45  22 W13G21    29.93F
6HR MIN TEMP:  69; 6HR MAX TEMP:  88;

JOHN DAY       PTSUNNY   81  48  31 CALM      30.06F
MEACHAM        MOSUNNY   79  41  25 VRB5      30.06F
6HR MIN TEMP:  50; 6HR MAX TEMP:  82;

LA GRANDE      MOSUNNY   84  46  26 N3        29.99F
6HR MIN TEMP:  57; 6HR MAX TEMP:  84;

BAKER CITY     PTSUNNY   75  54  47 CALM      30.04F
6HR MIN TEMP:  57; 6HR MAX TEMP:  75; 6HR PCP: TRACE;

BURNS          SUNNY     83  42  23 NE6       30.07F
6HR MIN TEMP:  51; 6HR MAX TEMP:  84;

ROME             N/A     85  42  22 W3        30.04F
6HR MIN TEMP:  59; 6HR MAX TEMP:  86;

ONTARIO        CLOUDY    80  58  46 VRB7      29.98F
6HR MIN TEMP:  63; 6HR MAX TEMP:  83; 6HR PCP: TRACE;

$$



USA.gov is the U.S. government's official web portal to all federal, state and local government web resources and services.